This is the latest recevied weather packets stored in our database for station/object OE9GTV. If no packets are shown the sender has not sent any weather packets the latest 10 day(s).
| Time | Temp. | Humidity | Pressure | Rain* | Wind** | Luminosity | Snow |
|---|---|---|---|---|---|---|---|
| 1777652475 | 23.89° C | 31% | 1019.8 hPa | 0 mm | - | 0 W/m² | - |
| 1777651875 | 23.89° C | 31% | 1019.8 hPa | 0 mm | - | 0 W/m² | - |
| 1777651275 | 23.89° C | 31% | 1019.8 hPa | 0 mm | - | 0 W/m² | - |
| 1777650676 | 23.33° C | 31% | 1019.9 hPa | 0 mm | - | 0 W/m² | - |
| 1777650075 | 23.33° C | 33% | 1019.9 hPa | 0 mm | - | 0 W/m² | - |
| 1777649475 | 23.33° C | 32% | 1020 hPa | 0 mm | - | 0 W/m² | - |
| 1777648875 | 23.33° C | 33% | 1020.1 hPa | 0 mm | - | 0 W/m² | - |
| 1777648275 | 23.33° C | 33% | 1020.1 hPa | 0 mm | - | 0 W/m² | - |
| 1777647675 | 22.78° C | 35% | 1020.3 hPa | 0 mm | - | 0 W/m² | - |
| 1777647075 | 23.33° C | 35% | 1020.3 hPa | 0 mm | - | 0 W/m² | - |
| 1777646475 | 22.78° C | 35% | 1020.4 hPa | 0 mm | - | 0 W/m² | - |
| 1777645875 | 22.78° C | 36% | 1020.5 hPa | 0 mm | - | 0 W/m² | - |
| 1777645275 | 22.22° C | 37% | 1020.6 hPa | 0 mm | - | 0 W/m² | - |
| 1777644675 | 22.78° C | 40% | 1020.7 hPa | 0 mm | - | 0 W/m² | - |
| 1777644075 | 22.22° C | 39% | 1020.8 hPa | 0 mm | - | 0 W/m² | - |
| 1777643475 | 21.67° C | 39% | 1021 hPa | 0 mm | - | 0 W/m² | - |
| 1777642875 | 21.67° C | 41% | 1021 hPa | 0 mm | - | 0 W/m² | - |
| 1777642274 | 21.67° C | 41% | 1021.1 hPa | 0 mm | - | 0 W/m² | - |
| 1777641674 | 21.11° C | 41% | 1021.2 hPa | 0 mm | - | 0 W/m² | - |
| 1777641074 | 21.11° C | 41% | 1021.4 hPa | 0 mm | - | 0 W/m² | - |
| 1777638674 | 20.56° C | 43% | 1021.8 hPa | 0 mm | - | 0 W/m² | - |
| 1777638074 | 20° C | 44% | 1021.9 hPa | 0 mm | - | 0 W/m² | - |
| 1777637474 | 20° C | 44% | 1022 hPa | 0 mm | - | 0 W/m² | - |
| 1777636874 | 20° C | 45% | 1022.1 hPa | 0 mm | - | 0 W/m² | - |
| 1777636274 | 19.44° C | 44% | 1022.1 hPa | 0 mm | - | 0 W/m² | - |
* Rain latest hour (hover to see other rain measurements)
** Current wind speed in m/s (hover to see current wind gust speed)